Zurück zum Katalog

CZ-4C R/B

AktivLEO
NORAD 47537·ROCKET BODY·🇨🇳 China

Gestartet Jan 29, 2021 von Jiuquan Satellite Launch Center

Loading…

Nächste Überflüge (nächste 24 Stunden)

TLE

AktuellSource: Space-Track

Epoche: Sep 14, 2026, 10:42 UTC

1 47537U 21007F   26257.44633548 -.00000033  00000-0  53055-4 0  9994
2 47537  63.4462  69.3946 0311218   1.3692 358.8127 13.68051518281000

Verfolge CZ-4C R/B in Echtzeit mit AllMySat

Download on the App Store